Weather History for Al Udeid, Qatar

Change the Weather History Date:

Saturday, July 27, 2013

  Actual Average Record
Temperature  
Mean Temperature 98 °F -  
Max Temperature 108 °F - - ()
Min Temperature 85 °F - - ()
Cooling Degree Days 32    
Growing Degree Days 48 (Base 50)    
Moisture  
Dew Point 50 °F    
Average Humidity 21    
Maximum Humidity 48    
Minimum Humidity 10    
Precipitation  
Precipitation 0.00 in - - ()
Sea Level Pressure  
Sea Level Pressure 29.37 in    
Wind  
Wind Speed 14 mph ()    
Max Wind Speed 30 mph    
Max Gust Speed 41 mph    
Visibility 4.9 miles    
Events      
T = Trace of Precipitation, MM = Missing Value Source: Averaged Metar Reports

Daily Weather History Graph

Daily Weather History Graph

Search for Another Location

Airport:

Trip Planner

Search our weather history database for the weather conditions in past years. The results will help you decide how hot, cold, wet, or windy it might be!

Date:

Astronomy

Jul. 27, 2013 Rise Set
Actual Time 4:59 AM AST 6:22 PM AST
Civil Twilight 4:34 AM AST 6:47 PM AST
Nautical Twilight 4:05 AM AST 7:16 PM AST
Astronomical Twilight 3:34 AM AST 7:47 PM AST
Moon 9:38 PM AST (7/27) 9:36 AM AST (7/27)
Length of Visible Light 14h 12m
Length of Day
13h 23m
Waning Gibbous, 74% of the Moon is Illuminated
Jul 27
Waning Gibbous
Jul 29
Last Quarter
Aug 7
New
Aug 14
First Quarter
Aug 21
Full

Hourly Weather History & Observations

Time (AST) Temp. Heat Index Dew Point Humidity Pressure Visibility Wind Dir Wind Speed Gust Speed Precip Events Conditions
12:55 AM 91.4 °F 94.0 °F 65.8 °F 43% 29.31 in 6.2 mi NNW 9.2 mph - N/A   Clear
1:55 AM 90.1 °F 93.5 °F 67.6 °F 47% 29.30 in 6.2 mi NW 12.7 mph - N/A   Clear
2:55 AM 89.8 °F 90.4 °F 62.2 °F 40% 29.31 in 6.2 mi NW 10.4 mph - N/A   Clear
3:55 AM 89.1 °F 90.3 °F 64.0 °F 43% 29.32 in 6.2 mi NW 10.4 mph - N/A   Clear
4:55 AM 87.3 °F 89.2 °F 65.1 °F 48% 29.34 in 6.2 mi WNW 9.2 mph - N/A   Clear
5:55 AM 88.7 °F 89.8 °F 63.3 °F 43% 29.35 in 6.2 mi WNW 11.5 mph - N/A   Clear
6:55 AM 91.4 °F 93.6 °F 65.1 °F 42% 29.37 in 5.0 mi NW 6.9 mph - N/A   Haze
7:55 AM 96.1 °F 96.4 °F 61.3 °F 31% 29.38 in 3.7 mi NW 12.7 mph - N/A   Haze
8:55 AM 102.0 °F - 52.9 °F 19% 29.37 in 3.7 mi NNW 16.1 mph - N/A   Haze
9:04 AM 102.2 °F - 51.8 °F 18% 29.37 in - NNW 16.1 mph - N/A   Haze
9:12 AM 104.0 °F - 50.0 °F 16% 29.37 in 3.7 mi NNW 18.4 mph - N/A   Haze
9:55 AM 106.0 °F - 42.8 °F 12% 29.36 in 3.7 mi NNW 24.2 mph - N/A   Haze
10:55 AM 107.1 °F - 42.4 °F 11% 29.36 in 5.6 mi North 21.9 mph 31.1 mph N/A   Haze
11:55 AM 108.3 °F - 48.2 °F 13% 29.36 in 5.6 mi NNW 21.9 mph 28.8 mph N/A   Haze
12:55 PM 108.7 °F - 46.8 °F 13% 29.35 in 3.7 mi North 23.0 mph 29.9 mph N/A   Haze
1:55 PM 108.5 °F - 45.3 °F 12% 29.36 in 3.7 mi NNW 23.0 mph 33.4 mph N/A   Haze
2:07 PM 107.6 °F - 42.8 °F 11% 29.35 in - NNW 29.9 mph 36.8 mph N/A   Haze
2:19 PM 107.6 °F - 41.0 °F 10% 29.36 in 3.7 mi NNW 23.0 mph 29.9 mph N/A   Haze
2:42 PM 107.6 °F - 41.0 °F 10% 29.36 in 3.7 mi NNW 26.5 mph 41.4 mph N/A   Haze
2:55 PM 108.0 °F - 41.2 °F 10% 29.36 in 3.7 mi NNW 26.5 mph 31.1 mph N/A   Haze
3:03 PM 107.6 °F - 41.0 °F 10% 29.36 in - NNW 24.2 mph 32.2 mph N/A   Haze
3:11 PM 107.6 °F - 41.0 °F 10% 29.36 in 3.7 mi NNW 23.0 mph 31.1 mph N/A   Haze
3:55 PM 106.0 °F - 45.1 °F 13% 29.36 in 3.7 mi NNW 27.6 mph - N/A   Haze
3:57 PM 105.8 °F - 44.6 °F 13% 29.36 in - NNW 26.5 mph - N/A   Haze
4:21 PM 105.8 °F - 44.6 °F 13% 29.37 in 3.7 mi North 23.0 mph 29.9 mph N/A   Haze
4:55 PM 104.0 °F - 41.7 °F 12% 29.37 in 3.7 mi North 24.2 mph 28.8 mph N/A   Haze
5:55 PM 101.3 °F - 43.0 °F 14% 29.38 in 3.7 mi North 23.0 mph - N/A   Haze
6:55 PM 99.7 °F - 41.2 °F 13% 29.39 in 6.2 mi North 16.1 mph - N/A   Clear
7:55 PM 97.2 °F - 43.0 °F 15% 29.40 in 6.2 mi North 12.7 mph - N/A   Clear
8:55 PM 92.7 °F - 46.0 °F 20% 29.42 in 6.2 mi NNW 5.8 mph - N/A   Clear
9:55 PM 90.0 °F - 48.9 °F 24% 29.44 in 6.2 mi NNW 4.6 mph - N/A   Clear
10:55 PM 88.0 °F - 48.7 °F 26% 29.44 in 6.2 mi Calm Calm - N/A   Clear
11:55 PM 85.8 °F - 50.2 °F 29% 29.44 in 6.2 mi NW 5.8 mph - N/A   Clear